[[{"header":{"parameterUnit":"m.s-1","parameterCategory":1,"la1":30.2992,"la2":30.254,"lo1":-89.0895,"lo2":-89.0443,"dy":0.0025,"dx":0.0025,"nx":19,"ny":19,"refTime":"2026-04-12T09:00:00:Z","depth":0,"parameterNumber":2,"parameterNumberName":"U-component_of_WINDS"},"data":[0,0,0,-2.0739,-2.0741,-2.0823,-2.0824,-2.0928,-2.0928,0,0,0,0,0,0,0,0,0,0,0,-2.0712,-2.0712,-2.0739,-2.0741,-2.0823,-2.0824,-2.0927,-2.0928,0,0,0,0,0,0,0,0,0,0,0,-2.0711,-2.0712,-2.0713,-2.0741,-2.0823,-2.0824,-2.0927,-2.0866,0,0,0,0,0,0,0,0,0,0,-2.0786,-2.0758,-2.0712,-2.0713,-2.0741,-2.0823,-2.0824,-2.0863,-2.087,-2.0889,0,-2.0904,0,-2.0918,-2.0935,-2.0935,0,0,0,-2.0743,-2.0752,-2.0777,-2.0713,-2.0742,-2.0823,-2.0787,-2.0867,-2.0874,-2.0898,-2.0905,-2.0909,-2.0919,-2.0936,-2.0936,-2.1034,-2.1035,0,0,-2.0739,-2.0725,-2.0771,-2.0781,-2.0767,-2.0784,-2.0789,-2.0871,-2.0879,-2.0905,-2.0912,-2.0921,-2.0936,-2.0937,-2.1034,-2.1034,0,0,0,-2.0724,-2.0722,-2.0745,-2.0777,-2.0792,-2.0786,-2.0792,-2.0875,-2.0884,-2.0913,-2.0922,-2.0937,-2.0938,-2.1034,-2.1034,-2.1036,0,0,0,-2.0721,-2.0713,-2.0743,-2.0735,-2.079,-2.0834,-2.0794,-2.0878,-2.0888,-2.0922,-2.0937,-2.0939,-2.1033,-2.1034,-2.1035,-2.1038,0,0,0,-2.0707,-2.0712,-2.0722,-2.0734,-2.0769,-2.0833,-2.0847,-2.0881,-2.0894,-2.0936,-2.094,-2.1033,-2.1034,-2.1034,-2.1037,-2.1059,0,0,0,-2.0689,-2.0724,-2.0722,-2.0766,-2.0768,-2.0834,-2.0846,-2.0896,-2.0932,-2.0938,-2.1033,-2.1034,-2.1034,-2.1036,-2.1058,-2.1073,-2.1078,0,0,-2.0725,-2.0728,-2.0754,-2.0755,-2.0817,-2.0822,-2.0885,-2.0932,-2.095,-2.1006,-2.1008,-2.1035,-2.1037,-2.1058,-2.1117,-2.1121,0,0,0,-2.0761,-2.078,-2.08,-2.0832,-2.0869,-2.09,-2.0939,-2.0957,-2.1004,-2.0975,-2.105,-2.1052,-2.1065,-2.1073,-2.1076,-2.1088,-2.1038,-2.1038,-2.1037,-2.0792,-2.0812,-2.0858,-2.0887,-2.092,-2.096,-2.0988,-2.1019,-2.1031,-2.1049,-2.1064,-2.1097,-2.1106,-2.1109,-2.1121,-2.1076,-2.1076,-2.1076,-2.1076,-2.0846,-2.0875,-2.089,-2.0939,-2.096,-2.1003,-2.1044,-2.1051,-2.1094,-2.1087,-2.11,-2.1088,-2.1112,-2.1124,-2.1076,-2.1076,-2.1076,-2.1076,-2.1076,-2.0867,-2.0884,-2.0905,-2.0955,-2.0992,-2.1023,-2.1063,-2.1083,-2.1102,-2.1115,-2.1133,-2.1133,-2.1134,-2.1122,-2.1123,-2.1123,-2.1123,-2.1123,-2.1123,-2.0879,-2.0902,-2.0933,-2.0975,-2.0999,-2.1033,-2.1076,-2.1101,-2.1133,-2.1144,-2.1145,-2.1154,-2.1112,-2.1099,-2.1125,-2.1124,-2.1124,-2.1124,-2.1124,-2.0922,-2.0916,-2.0962,-2.0986,-2.1038,-2.1074,-2.1099,-2.1148,-2.1172,-2.1192,-2.12,-2.1166,-2.117,-2.1167,-2.1157,-2.1196,-2.1196,-2.1196,-2.1196,-2.0938,-2.0942,-2.0994,-2.1031,-2.1071,-2.1098,-2.1152,-2.1187,-2.1222,-2.1238,-2.1236,-2.1225,-2.1222,-2.1228,-2.1224,-2.1214,-2.1267,-2.1267,-2.1267,-2.0965,-2.0974,-2.1014,-2.1047,-2.1089,-2.1125,-2.1177,-2.1221,-2.126,-2.1271,-2.1251,-2.1248,-2.1231,-2.1224,-2.1231,-2.1225,-2.1208,0,0]},{"header":{"parameterUnit":"m.s-1","parameterCategory":1,"la1":30.2992,"la2":30.254,"lo1":-89.0895,"lo2":-89.0443,"dy":0.0025,"dx":0.0025,"nx":19,"ny":19,"refTime":"2026-04-12T09:00:00:Z","depth":0,"parameterNumber":3,"parameterNumberName":"V-component_of_WINDS"},"data":[0,0,0,3.6565,3.6564,3.6528,3.6528,3.6465,3.6464,0,0,0,0,0,0,0,0,0,0,0,3.6565,3.6564,3.6565,3.6564,3.6528,3.6528,3.6465,3.6464,0,0,0,0,0,0,0,0,0,0,0,3.6565,3.6564,3.6563,3.6564,3.6528,3.6528,3.6465,3.6498,0,0,0,0,0,0,0,0,0,0,3.6536,3.6526,3.6565,3.6563,3.6563,3.6528,3.6528,3.65,3.6496,3.6474,0,3.6451,0,3.6457,3.6459,3.6459,0,0,0,3.6571,3.6529,3.6529,3.6563,3.6563,3.6528,3.6546,3.6498,3.6494,3.6468,3.6451,3.6449,3.6456,3.6458,3.6458,3.6306,3.6305,0,0,3.6573,3.6553,3.6532,3.6526,3.6531,3.6547,3.6545,3.6496,3.6475,3.645,3.6448,3.6455,3.6458,3.6457,3.6307,3.6305,0,0,0,3.6574,3.6554,3.6555,3.6528,3.6523,3.6546,3.6544,3.6477,3.6479,3.6447,3.6454,3.6458,3.6457,3.6308,3.6306,3.6234,0,0,0,3.6575,3.6554,3.6556,3.6543,3.6523,3.65,3.6526,3.6483,3.6478,3.6454,3.6457,3.6456,3.6309,3.6307,3.6239,3.6203,0,0,0,3.6571,3.6554,3.6545,3.6542,3.6526,3.6501,3.6501,3.6482,3.6482,3.6459,3.6456,3.631,3.6307,3.6243,3.621,3.6157,0,0,0,3.656,3.6481,3.6544,3.6459,3.6526,3.6457,3.6501,3.645,3.6422,3.6457,3.6309,3.6306,3.6244,3.6214,3.6162,3.6109,3.6086,0,0,3.6449,3.6467,3.6419,3.6474,3.6388,3.6464,3.6368,3.6361,3.6377,3.6328,3.6325,3.6237,3.6211,3.6158,3.5962,3.5943,0,0,0,3.6376,3.6341,3.6323,3.6296,3.629,3.6281,3.6292,3.6289,3.6249,3.6348,3.6205,3.619,3.616,3.6136,3.612,3.6095,3.6295,3.6295,3.6295,3.6189,3.6215,3.6137,3.6159,3.6132,3.6145,3.6125,3.6124,3.6157,3.6123,3.6108,3.5986,3.5956,3.5945,3.5919,3.6083,3.6083,3.6082,3.6082,3.6029,3.5983,3.6031,3.5972,3.6,3.5951,3.596,3.5985,3.5943,3.5998,3.5973,3.6031,3.5923,3.5902,3.6077,3.6078,3.6079,3.6079,3.608,3.5908,3.5891,3.5891,3.5855,3.5825,3.585,3.5808,3.5835,3.586,3.5835,3.5823,3.5824,3.5828,3.5828,3.5827,3.5827,3.5827,3.5826,3.5826,3.5783,3.5785,3.5747,3.5735,3.5722,3.5708,3.5721,3.5708,3.5701,3.5724,3.5724,3.576,3.5908,3.5944,3.5819,3.5821,3.5821,3.5822,3.5822,3.5609,3.5653,3.5594,3.5581,3.557,3.5538,3.5574,3.5547,3.554,3.5519,3.5561,3.5666,3.5686,3.5699,3.5729,3.5556,3.5556,3.5556,3.5556,3.5507,3.5521,3.5467,3.5444,3.5425,3.5452,3.5384,3.5393,3.541,3.5408,3.5437,3.548,3.5492,3.5504,3.5521,3.555,3.5335,3.5335,3.5335,3.5402,3.5415,3.5352,3.537,3.5364,3.5357,3.5294,3.5266,3.5294,3.5326,3.5406,3.5416,3.5485,3.5506,3.5539,3.5565,3.5618,0,0]}]]